NLK YCFS-YBAF

Flight info

Callsign NLK
Flight time 0h 52m
Altitude 18000
Route N241F180 DCT CFS V652 IDNER W760 HUUGO W128 ENKOG DCT
Aircraft B58T/L-SDFGRY/C

Departure

Time 2026-04-25 05:55
Airport Coffs Harbour Airport (YCFS)

Arrival

Time 2026-04-25 06:47
Airport Brisbane Archerfield Airport (YBAF)
Time Latitude Longitude Altitude Speed Heading
2026-04-25 05:41 -30.31418 153.11857 16 ft 0 kts 290°
2026-04-25 05:46 -30.31409 153.11852 16 ft 4 kts 18°
2026-04-25 05:46 -30.31403 153.11865 16 ft 0 kts 72°
2026-04-25 05:46 -30.31408 153.11881 16 ft 1 kts 132°
2026-04-25 05:46 -30.31414 153.11885 16 ft 0 kts 155°
2026-04-25 05:47 -30.31414 153.11886 16 ft 1 kts 155°
2026-04-25 05:48 -30.31437 153.11891 16 ft 5 kts 183°
2026-04-25 05:48 -30.31482 153.11879 16 ft 8 kts 198°
2026-04-25 05:48 -30.31549 153.11850 16 ft 13 kts 213°
2026-04-25 05:48 -30.31616 153.11766 16 ft 13 kts 229°
2026-04-25 05:49 -30.31658 153.11706 16 ft 4 kts 229°
2026-04-25 05:49 -30.31659 153.11705 16 ft 0 kts 229°
2026-04-25 05:52 -30.31668 153.11692 16 ft 8 kts 231°
2026-04-25 05:52 -30.31700 153.11611 16 ft 18 kts 290°
2026-04-25 05:52 -30.31654 153.11457 16 ft 18 kts 290°
2026-04-25 05:53 -30.31626 153.11366 17 ft 7 kts 234°
2026-04-25 05:53 -30.31642 153.11406 16 ft 0 kts 109°
2026-04-25 05:54 -30.31965 153.12613 317 ft 117 kts 110°
2026-04-25 05:55 -30.32216 153.13570 717 ft 133 kts 108°
2026-04-25 05:55 -30.32490 153.14630 1142 ft 140 kts 105°
2026-04-25 05:55 -30.32267 153.15716 1577 ft 150 kts 56°
2026-04-25 05:55 -30.31302 153.16214 2015 ft 162 kts
2026-04-25 05:56 -30.30280 153.15691 2441 ft 166 kts 319°
2026-04-25 05:56 -30.29476 153.14728 2874 ft 166 kts 315°
2026-04-25 05:56 -30.28679 153.13784 3301 ft 164 kts 315°
2026-04-25 05:56 -30.27879 153.12835 3724 ft 165 kts 315°
2026-04-25 05:57 -30.27069 153.11901 4144 ft 165 kts 319°
2026-04-25 05:57 -30.26116 153.11177 4561 ft 164 kts 342°
2026-04-25 05:57 -30.25004 153.10908 4999 ft 164 kts 354°
2026-04-25 05:57 -30.23868 153.10726 5420 ft 165 kts 354°
2026-04-25 05:58 -30.22739 153.10539 5838 ft 167 kts 355°
2026-04-25 05:58 -30.21589 153.10348 6253 ft 168 kts 355°
2026-04-25 05:58 -30.20411 153.10153 6638 ft 173 kts 355°
2026-04-25 05:58 -30.19212 153.09952 7003 ft 175 kts 355°
2026-04-25 05:59 -30.18006 153.09750 7370 ft 175 kts 355°
2026-04-25 05:59 -30.16793 153.09548 7739 ft 176 kts 355°
2026-04-25 05:59 -30.15572 153.09343 8109 ft 178 kts 355°
2026-04-25 05:59 -30.14340 153.09136 8484 ft 179 kts 355°
2026-04-25 06:00 -30.13107 153.08930 8862 ft 179 kts 355°
2026-04-25 06:00 -30.11872 153.08723 9240 ft 180 kts 356°
2026-04-25 06:00 -30.10635 153.08517 9617 ft 179 kts 356°
2026-04-25 06:00 -30.09415 153.08310 10012 ft 180 kts 356°
2026-04-25 06:01 -30.08174 153.08106 10392 ft 181 kts 356°
2026-04-25 06:01 -30.06923 153.07898 10746 ft 182 kts 356°
2026-04-25 06:01 -30.05669 153.07688 11103 ft 182 kts 356°
2026-04-25 06:01 -30.04415 153.07479 11462 ft 182 kts 356°
2026-04-25 06:02 -30.03155 153.07267 11827 ft 183 kts 356°
2026-04-25 06:02 -30.01898 153.07056 12199 ft 182 kts 356°
2026-04-25 06:02 -30.00640 153.06846 12567 ft 183 kts 357°
2026-04-25 06:02 -29.99376 153.06637 12944 ft 183 kts 357°
2026-04-25 06:03 -29.98111 153.06426 13330 ft 184 kts 356°
2026-04-25 06:03 -29.96838 153.06213 13718 ft 186 kts 356°
2026-04-25 06:03 -29.95556 153.06000 14118 ft 186 kts 356°
2026-04-25 06:03 -29.94267 153.05785 14474 ft 187 kts 356°
2026-04-25 06:04 -29.92972 153.05569 14827 ft 189 kts 356°
2026-04-25 06:04 -29.91668 153.05352 15186 ft 189 kts 356°
2026-04-25 06:04 -29.90359 153.05134 15546 ft 191 kts 356°
2026-04-25 06:04 -29.89045 153.04915 15912 ft 191 kts 356°
2026-04-25 06:05 -29.87739 153.04698 16279 ft 192 kts 356°
2026-04-25 06:05 -29.86411 153.04477 16654 ft 193 kts 356°
2026-04-25 06:05 -29.85074 153.04255 17035 ft 194 kts 356°
2026-04-25 06:05 -29.83731 153.04032 17420 ft 196 kts 356°
2026-04-25 06:06 -29.82379 153.03806 17806 ft 197 kts 356°
2026-04-25 06:06 -29.81019 153.03580 18203 ft 198 kts 356°
2026-04-25 06:06 -29.79627 153.03351 18381 ft 211 kts 356°
2026-04-25 06:06 -29.78133 153.03107 18390 ft 222 kts 356°
2026-04-25 06:07 -29.76578 153.02846 18390 ft 229 kts 356°
2026-04-25 06:07 -29.74985 153.02751 18390 ft 230 kts
2026-04-25 06:07 -29.73362 153.02806 18391 ft 234 kts
2026-04-25 06:07 -29.71727 153.02847 18391 ft 236 kts
2026-04-25 06:08 -29.70074 153.02882 18388 ft 238 kts
2026-04-25 06:08 -29.68412 153.02919 18383 ft 239 kts
2026-04-25 06:08 -29.66763 153.02958 18383 ft 240 kts
2026-04-25 06:08 -29.65096 153.02997 18385 ft 240 kts
2026-04-25 06:09 -29.63416 153.03037 18382 ft 241 kts
2026-04-25 06:09 -29.61740 153.03075 18383 ft 241 kts
2026-04-25 06:09 -29.60063 153.03115 18384 ft 241 kts
2026-04-25 06:09 -29.58384 153.03154 18382 ft 241 kts
2026-04-25 06:10 -29.56704 153.03193 18378 ft 241 kts
2026-04-25 06:10 -29.55024 153.03232 18379 ft 241 kts
2026-04-25 06:10 -29.53346 153.03271 18379 ft 241 kts
2026-04-25 06:10 -29.51667 153.03310 18379 ft 241 kts
2026-04-25 06:11 -29.49987 153.03350 18382 ft 242 kts
2026-04-25 06:11 -29.48306 153.03389 18377 ft 242 kts
2026-04-25 06:11 -29.46632 153.03428 18378 ft 242 kts
2026-04-25 06:11 -29.44946 153.03467 18375 ft 242 kts
2026-04-25 06:12 -29.43261 153.03506 18375 ft 242 kts
2026-04-25 06:12 -29.41576 153.03545 18376 ft 242 kts
2026-04-25 06:12 -29.39889 153.03584 18375 ft 242 kts
2026-04-25 06:12 -29.38225 153.03623 18370 ft 242 kts
2026-04-25 06:13 -29.36537 153.03662 18370 ft 242 kts
2026-04-25 06:13 -29.34848 153.03702 18370 ft 242 kts
2026-04-25 06:13 -29.33160 153.03741 18370 ft 242 kts
2026-04-25 06:14 -29.29785 153.03819 18369 ft 242 kts
2026-04-25 06:14 -29.28120 153.03857 18367 ft 242 kts
2026-04-25 06:14 -29.26435 153.03897 18366 ft 242 kts
2026-04-25 06:14 -29.24751 153.03936 18367 ft 242 kts
2026-04-25 06:15 -29.23068 153.03975 18366 ft 242 kts
2026-04-25 06:15 -29.21386 153.04014 18367 ft 242 kts
2026-04-25 06:15 -29.19703 153.04053 18367 ft 242 kts
2026-04-25 06:15 -29.18016 153.04092 18367 ft 243 kts
2026-04-25 06:16 -29.16327 153.04131 18363 ft 243 kts
2026-04-25 06:16 -29.14639 153.04170 18363 ft 242 kts
2026-04-25 06:16 -29.12950 153.04209 18362 ft 242 kts
2026-04-25 06:16 -29.11261 153.04248 18363 ft 242 kts
2026-04-25 06:17 -29.09573 153.04287 18366 ft 243 kts
2026-04-25 06:17 -29.07885 153.04326 18362 ft 243 kts
2026-04-25 06:17 -29.06198 153.04365 18362 ft 243 kts
2026-04-25 06:17 -29.04509 153.04404 18362 ft 243 kts
2026-04-25 06:18 -29.02820 153.04443 18357 ft 243 kts
2026-04-25 06:18 -29.01153 153.04481 18357 ft 242 kts
2026-04-25 06:18 -28.99467 153.04520 18357 ft 243 kts
2026-04-25 06:18 -28.97781 153.04559 18352 ft 242 kts
2026-04-25 06:19 -28.96091 153.04598 18356 ft 242 kts
2026-04-25 06:19 -28.94406 153.04637 18355 ft 242 kts
2026-04-25 06:19 -28.92721 153.04676 18364 ft 242 kts
2026-04-25 06:19 -28.91037 153.04715 18355 ft 242 kts
2026-04-25 06:20 -28.89351 153.04753 18352 ft 242 kts
2026-04-25 06:20 -28.87665 153.04787 18352 ft 242 kts
2026-04-25 06:20 -28.85975 153.04573 18350 ft 244 kts 355°
2026-04-25 06:20 -28.84317 153.04297 18351 ft 244 kts 355°
2026-04-25 06:21 -28.82628 153.04030 18355 ft 244 kts 355°
2026-04-25 06:21 -28.80941 153.03766 18355 ft 245 kts 355°
2026-04-25 06:21 -28.79254 153.03501 18355 ft 244 kts 355°
2026-04-25 06:21 -28.77566 153.03234 18355 ft 245 kts 355°
2026-04-25 06:22 -28.75882 153.02968 18353 ft 244 kts 355°
2026-04-25 06:22 -28.74197 153.02702 18352 ft 245 kts 355°
2026-04-25 06:22 -28.72508 153.02436 18352 ft 245 kts 355°
2026-04-25 06:22 -28.70823 153.02170 18352 ft 245 kts 355°
2026-04-25 06:23 -28.69133 153.01904 18353 ft 245 kts 355°
2026-04-25 06:23 -28.67467 153.01640 18354 ft 245 kts 355°
2026-04-25 06:23 -28.65781 153.01376 18354 ft 245 kts 355°
2026-04-25 06:23 -28.64086 153.01108 18353 ft 245 kts 355°
2026-04-25 06:24 -28.62397 153.00843 18352 ft 245 kts 355°
2026-04-25 06:24 -28.60709 153.00576 18352 ft 245 kts 354°
2026-04-25 06:24 -28.59021 153.00302 18354 ft 245 kts 355°
2026-04-25 06:24 -28.57333 153.00030 18353 ft 245 kts 355°
2026-04-25 06:25 -28.55643 152.99760 18350 ft 245 kts 355°
2026-04-25 06:25 -28.53950 152.99490 18346 ft 245 kts 356°
2026-04-25 06:25 -28.52257 152.99216 18347 ft 246 kts 355°
2026-04-25 06:25 -28.50565 152.98941 18346 ft 245 kts 355°
2026-04-25 06:26 -28.48867 152.98670 18217 ft 249 kts 356°
2026-04-25 06:26 -28.47171 152.98402 17938 ft 249 kts 355°
2026-04-25 06:26 -28.45456 152.98124 17653 ft 248 kts 355°
2026-04-25 06:26 -28.43754 152.97847 17370 ft 245 kts 356°
2026-04-25 06:27 -28.42102 152.97581 17072 ft 235 kts 356°
2026-04-25 06:27 -28.40497 152.97325 16788 ft 231 kts 356°
2026-04-25 06:27 -28.38912 152.97074 16504 ft 229 kts 356°
2026-04-25 06:27 -28.37343 152.96824 16234 ft 228 kts 356°
2026-04-25 06:28 -28.35781 152.96572 15986 ft 226 kts 356°
2026-04-25 06:28 -28.34229 152.96323 15731 ft 224 kts 356°
2026-04-25 06:28 -28.32694 152.96080 15484 ft 223 kts 356°
2026-04-25 06:28 -28.31155 152.95833 15246 ft 224 kts 357°
2026-04-25 06:29 -28.29613 152.95587 14987 ft 223 kts 358°
2026-04-25 06:29 -28.28095 152.95349 14760 ft 220 kts 356°
2026-04-25 06:29 -28.26558 152.95088 14525 ft 225 kts 357°
2026-04-25 06:29 -28.25529 152.94924 14376 ft 227 kts 358°
2026-04-25 06:30 -28.23956 152.94684 14139 ft 228 kts 358°
2026-04-25 06:30 -28.22387 152.94434 13882 ft 227 kts 358°
2026-04-25 06:30 -28.20825 152.94179 13617 ft 226 kts 358°
2026-04-25 06:30 -28.19273 152.93932 13356 ft 224 kts 358°
2026-04-25 06:31 -28.17731 152.93688 13101 ft 224 kts 358°
2026-04-25 06:31 -28.16193 152.93443 12843 ft 223 kts 358°
2026-04-25 06:31 -28.14658 152.93197 12588 ft 222 kts 358°
2026-04-25 06:31 -28.13130 152.92954 12335 ft 221 kts 358°
2026-04-25 06:32 -28.11605 152.92711 12086 ft 221 kts 358°
2026-04-25 06:32 -28.09594 152.92390 11762 ft 220 kts 358°
2026-04-25 06:32 -28.08592 152.92231 11601 ft 219 kts 358°
2026-04-25 06:32 -28.07081 152.91990 11355 ft 219 kts 358°
2026-04-25 06:33 -28.05579 152.91751 11110 ft 218 kts 358°
2026-04-25 06:33 -28.04073 152.91512 10869 ft 218 kts 358°
2026-04-25 06:33 -28.02575 152.91273 10626 ft 217 kts 358°
2026-04-25 06:33 -28.01088 152.91036 10390 ft 215 kts 358°
2026-04-25 06:34 -27.99604 152.90800 10151 ft 215 kts 358°
2026-04-25 06:34 -27.98129 152.90566 9897 ft 214 kts 358°
2026-04-25 06:34 -27.96651 152.90331 9635 ft 214 kts 358°
2026-04-25 06:34 -27.95177 152.90097 9374 ft 213 kts 358°
2026-04-25 06:35 -27.93707 152.89866 9119 ft 213 kts 358°
2026-04-25 06:35 -27.92259 152.89632 9008 ft 205 kts 358°
2026-04-25 06:35 -27.90872 152.89409 9000 ft 198 kts 358°
2026-04-25 06:35 -27.89510 152.89194 8996 ft 198 kts 358°
2026-04-25 06:36 -27.88145 152.88980 8991 ft 198 kts 358°
2026-04-25 06:36 -27.86785 152.88764 8989 ft 197 kts 358°
2026-04-25 06:36 -27.85428 152.88549 8933 ft 199 kts 358°
2026-04-25 06:36 -27.84036 152.88332 8694 ft 209 kts 358°
2026-04-25 06:37 -27.82575 152.88100 8452 ft 214 kts 358°
2026-04-25 06:37 -27.81091 152.87864 8212 ft 215 kts 358°
2026-04-25 06:37 -27.79629 152.87636 7941 ft 209 kts 358°
2026-04-25 06:37 -27.78207 152.87402 7645 ft 203 kts 359°
2026-04-25 06:38 -27.76807 152.87181 7338 ft 202 kts 358°
2026-04-25 06:38 -27.75431 152.86960 7045 ft 197 kts 358°
2026-04-25 06:38 -27.74092 152.86752 6749 ft 192 kts 357°
2026-04-25 06:38 -27.72776 152.86542 6441 ft 190 kts 358°
2026-04-25 06:39 -27.71512 152.86341 6119 ft 177 kts 358°
2026-04-25 06:39 -27.70313 152.86151 5810 ft 172 kts 359°
2026-04-25 06:39 -27.69130 152.85966 5500 ft 170 kts 358°
2026-04-25 06:39 -27.67955 152.85782 5170 ft 170 kts 358°
2026-04-25 06:40 -27.66814 152.85603 4839 ft 166 kts 358°
2026-04-25 06:40 -27.65676 152.85407 4498 ft 163 kts 359°
2026-04-25 06:40 -27.64564 152.85246 4175 ft 164 kts 358°
2026-04-25 06:40 -27.63440 152.85072 3854 ft 162 kts 358°
2026-04-25 06:41 -27.62328 152.84894 3535 ft 161 kts 358°
2026-04-25 06:41 -27.61242 152.84718 3386 ft 151 kts 358°
2026-04-25 06:41 -27.60219 152.84555 3384 ft 147 kts 358°
2026-04-25 06:41 -27.59252 152.84591 3381 ft 129 kts 28°
2026-04-25 06:42 -27.58497 152.85069 3384 ft 125 kts 49°
2026-04-25 06:42 -27.57815 152.85673 3366 ft 125 kts 48°
2026-04-25 06:42 -27.57103 152.86287 3200 ft 131 kts 47°
2026-04-25 06:42 -27.56390 152.86899 2994 ft 125 kts 48°
2026-04-25 06:43 -27.55716 152.87488 2762 ft 120 kts 49°
2026-04-25 06:43 -27.55058 152.88064 2526 ft 119 kts 49°
2026-04-25 06:43 -27.54436 152.88659 2292 ft 113 kts 63°
2026-04-25 06:43 -27.54191 152.89409 2042 ft 97 kts 95°
2026-04-25 06:44 -27.54299 152.90135 1859 ft 92 kts 112°
2026-04-25 06:44 -27.54502 152.90825 1729 ft 95 kts 110°
2026-04-25 06:44 -27.54707 152.91555 1603 ft 101 kts 110°
2026-04-25 06:44 -27.54927 152.92322 1460 ft 105 kts 111°
2026-04-25 06:45 -27.55152 152.93113 1307 ft 107 kts 110°
2026-04-25 06:45 -27.55377 152.93911 1166 ft 107 kts 110°
2026-04-25 06:45 -27.55608 152.94730 1024 ft 112 kts 109°
2026-04-25 06:45 -27.55826 152.95544 945 ft 100 kts 109°
2026-04-25 06:46 -27.56030 152.96245 832 ft 89 kts 111°
2026-04-25 06:46 -27.56230 152.96873 687 ft 87 kts 110°
2026-04-25 06:46 -27.56434 152.97552 550 ft 96 kts 107°
2026-04-25 06:46 -27.56609 152.98269 437 ft 90 kts 104°
2026-04-25 06:47 -27.56801 152.98906 249 ft 89 kts 107°
2026-04-25 06:47 -27.56991 152.99571 88 ft 88 kts 107°
2026-04-25 06:47 -27.57156 153.00150 39 ft 62 kts 108°
2026-04-25 06:47 -27.57266 153.00532 39 ft 45 kts 108°
2026-04-25 06:48 -27.57356 153.00846 36 ft 41 kts 108°
2026-04-25 06:48 -27.57427 153.01080 32 ft 15 kts 142°
2026-04-25 06:48 -27.57480 153.01072 33 ft 0 kts 196°
2026-04-25 06:48 -27.57487 153.01070 33 ft 5 kts 197°
2026-04-25 06:49 -27.57520 153.01110 34 ft 11 kts 109°
2026-04-25 06:49 -27.57578 153.01111 38 ft 11 kts 205°
2026-04-25 06:49 -27.57635 153.01078 46 ft 0 kts 188°